Location: Berbisdorf
(50.7638°N, 12.9442°E)
Time: 01:59:14
(UTC+00:00)

BREEZE-M DEB (TANK) - Pass Details

Date: 08 October 2020
Orbit: 333 x 12040 km, 49.7° (Epoch: 19 October)

Event Time Altitude Azimuth Distance (km) Brightness Sun altitude
Rises 22:59:00 0° 124° (SE) 16,284 9.3 -45.2°
Reaches altitude 10° 23:26:21 10° 111° (ESE) 16,192 9.4 -44.8°
Maximum altitude 00:06:17 17° 88° (E) 14,070 9.3 -42.9°
Drops below altitude 10° 00:33:57 10° 63° (ENE) 11,657 9.3 -40.8°
Sets 00:45:54 0° 49° (NE) 10,735 9.5 -39.7°
